WZZ5241 EHBK-EPKT

Flight info

Callsign WZZ5241
Flight time N/A
Altitude 37000
Route NETEX Z283 VEBAK L179 MEVEL Z44 HMM DCT GOBAX DCT LASIS T714 MOFKE
Aircraft A321/M-SDE1E2E3FGIJ1J4RWXY/LB1

Departure

Time 2026-05-05 13:58
Airport Maastricht Aachen Airport (EHBK)

Arrival

Time N/A
Airport Katowice Wojciech Korfanty International Airport (EPKT)
Time Latitude Longitude Altitude Speed Heading
2026-05-05 13:43 50.91366 5.76800 384 ft 0 kts 347°
2026-05-05 13:47 50.91347 5.76808 384 ft 4 kts 342°
2026-05-05 13:48 50.91325 5.76818 384 ft 2 kts 347°
2026-05-05 13:48 50.91300 5.76820 384 ft 4 kts 19°
2026-05-05 13:48 50.91277 5.76801 383 ft 4 kts 33°
2026-05-05 13:48 50.91267 5.76791 383 ft 0 kts 32°
2026-05-05 13:50 50.91273 5.76797 383 ft 3 kts 32°
2026-05-05 13:50 50.91299 5.76822 384 ft 6 kts 32°
2026-05-05 13:51 50.91344 5.76867 384 ft 9 kts 32°
2026-05-05 13:51 50.91407 5.76929 384 ft 12 kts 32°
2026-05-05 13:51 50.91484 5.77010 384 ft 15 kts 33°
2026-05-05 13:51 50.91575 5.77104 384 ft 17 kts 33°
2026-05-05 13:52 50.91680 5.77211 384 ft 19 kts 33°
2026-05-05 13:52 50.91794 5.77329 384 ft 20 kts 32°
2026-05-05 13:52 50.91919 5.77451 384 ft 22 kts 32°
2026-05-05 13:52 50.92051 5.77582 384 ft 23 kts 32°
2026-05-05 13:53 50.92140 5.77684 384 ft 5 kts 60°
2026-05-05 13:53 50.92141 5.77691 384 ft 0 kts 69°
2026-05-05 13:56 50.92142 5.77696 384 ft 2 kts 75°
2026-05-05 13:56 50.92138 5.77717 384 ft 3 kts 110°
2026-05-05 13:56 50.92126 5.77759 384 ft 5 kts 118°
2026-05-05 13:57 50.92102 5.77819 384 ft 7 kts 122°
2026-05-05 13:57 50.92067 5.77885 384 ft 9 kts 156°
2026-05-05 13:57 50.92006 5.77849 384 ft 11 kts 213°
2026-05-05 13:57 50.91896 5.77737 383 ft 45 kts 213°
2026-05-05 13:58 50.91401 5.77237 384 ft 120 kts 212°
2026-05-05 13:58 50.90515 5.76349 430 ft 172 kts 214°
2026-05-05 13:58 50.89503 5.75365 1210 ft 170 kts 215°
2026-05-05 13:58 50.88736 5.73949 1874 ft 174 kts 246°
2026-05-05 13:59 50.89060 5.69803 2204 ft 220 kts 314°
2026-05-05 13:59 50.90412 5.68552 2451 ft 238 kts 352°
2026-05-05 14:00 50.93232 5.71038 3967 ft 261 kts 66°
2026-05-05 14:00 50.93563 5.72888 4517 ft 266 kts 79°
2026-05-05 14:00 50.94029 5.76814 5664 ft 274 kts 79°
2026-05-05 14:00 50.94413 5.79791 6475 ft 277 kts 79°
2026-05-05 14:01 50.94819 5.82794 7250 ft 280 kts 78°
2026-05-05 14:01 50.95243 5.85826 8048 ft 283 kts 79°
2026-05-05 14:01 50.95669 5.88891 8837 ft 286 kts 78°
2026-05-05 14:01 50.96269 5.91924 9614 ft 290 kts 68°
2026-05-05 14:02 50.97276 5.94733 10213 ft 301 kts 54°
2026-05-05 14:02 50.98753 5.97209 10362 ft 325 kts 39°
2026-05-05 14:02 51.00748 5.99203 10636 ft 342 kts 29°
2026-05-05 14:02 51.02872 6.01010 11258 ft 349 kts 29°
2026-05-05 14:03 51.04991 6.02835 11889 ft 353 kts 29°
2026-05-05 14:03 51.07159 6.04703 12546 ft 357 kts 29°
2026-05-05 14:03 51.09353 6.06606 13194 ft 361 kts 30°
2026-05-05 14:03 51.11564 6.08533 13818 ft 364 kts 30°
2026-05-05 14:04 51.13798 6.10483 14378 ft 368 kts 30°
2026-05-05 14:04 51.16055 6.12444 14963 ft 371 kts 30°
2026-05-05 14:04 51.18325 6.14424 15548 ft 373 kts 30°